Regional Weather Roundup
Issued by NWS Newport/Morehead, NC

Current Version | Previous Version | Text Only | Print | Product List | Glossary Off
Versions: 1 2 3 4 5 6 7 8 9 10 11 12 13 14 15 16 17 18 19 20 21 22 23 24 25 26 27 28 29 30 31 32 33 34 35 36 37 38 39 40 41 42 43 44 45 46 47 48 49 50
000 ASUS42 KMHX 220122 RWRMHX WEATHER ROUNDUP FOR EASTERN NORTH CAROLINA NATIONAL WEATHER SERVICE NEWPORT/MOREHEAD CITY NC 900 PM EDT TUE OCT 21 2014 NOTE: "FAIR" INDICATES FEW OR NO CLOUDS BELOW 12,000 FEET WITH NO SIGNIFICANT WEATHER AND/OR OBSTRUCTIONS TO VISIBILITY NCZ015>017-031-032-045>047-102-103-220200- NORTH COAST CITY SKY/WX TMP DP RH WIND PRES REMARKS EDENTON CLOUDY 61 56 83 CALM 29.86R ELIZABETH CITY CLOUDY 64 54 69 SW5 29.85R KITTY HAWK MOCLDY 66 59 77 CALM 29.84F MANTEO CLOUDY 66 61 83 W5 29.86S $$ NCZ045>047-081-094-103-104-220200- CENTRAL COAST CITY SKY/WX TMP DP RH WIND PRES REMARKS FRISCO CLEAR 68 60 75 W6 29.86S SWANQUARTER N/A 68 N/A N/A W7 29.82S $$ NCZ095-097-098-100-101-220200- SOUTHERN COAST CITY SKY/WX TMP DP RH WIND PRES REMARKS BEAUFORT PTCLDY 69 59 70 SW6 29.86S CEDAR ISLAND N/A 64 N/A N/A SW3 29.88S JACKSONVILLE CLEAR 64 58 80 SW8 29.86S PINEY ISLAND PTCLDY 66 59 78 W5 29.86S WILMINGTON CLEAR 63 58 83 S5 29.88R $$ NCZ011>013-027>030-043-044-078>080-089-090>093-098-220200- COASTAL PLAIN CITY SKY/WX TMP DP RH WIND PRES REMARKS AHOSKIE N/A 61 53 72 NW5 29.88R CLINTON CLOUDY 62 58 87 CALM 29.88S ELIZABETHTOWN MOCLDY 62 54 74 CALM 29.88S GOLDSBORO MOCLDY 65 61 88 CALM 29.85S GREENVILLE MOCLDY 63 59 88 CALM 29.89R HAVELOCK PTCLDY 63 59 87 SW3 29.88S KENANSVILLE PTCLDY 58 55 88 CALM 29.88S KINSTON PTCLDY 61 57 88 CALM 29.87S NEW BERN PTCLDY 65 59 81 S5 29.87F RICHLANDS CLOUDY 59 54 82 SW5 29.88R ROCKY MOUNT CLOUDY 65 51 60 NW12 29.89R WASHINGTON MOCLDY 60 55 84 CALM 29.87R WHITEVILLE PTCLDY 61 55 79 CALM 29.88S $$ AMZ130-135-150-152-154-156-158-170-250-252-270-ANZ085-086-088-633-658-670-220200- MARINE OBSERVATIONS STATION/POSITION TIME TEMP WIND PRES WAVE SWELL AIR SEA DIR/SP/G HT/PER HT/PER (UTC) (F) (DEG/KT/KT) (MB) (FT/S) (FT/S) CHESAPEAKE LIGHT 0100 68 140/ 6/ 7 1011.1 64 E VA BEACH 0100 70 69 220/ 12/ 14 1010.0 3/ 5 2/ 9 DUCK 0100 68 69 200/ 6/ 6 1010.0 2 E DUCK 0100 N/A 2/12 2/12 10 NE DUCK 0100 71 N/A 2/10 OREGON INLET 0100 69 69 210/ 9/ 10 1010.8 13E OREGON INLT 0100 74 N/A 3/12 2/12 HATTERAS CG 0100 70 72 260/ 10/ 13 1011.3 DIAMOND BUOY 0100 72 260/ 17/ 21 1010.4 3/ 9 2/ 9 17 S OCRACOKE 0000 VRB 14/ 17 1011.0 CAPE LOOKOUT 0100 71 240/ 7/ 9 1011.1 BEAUFORT LAB 0100 71 71 250/ 4/ 7 1010.6 30 SE NEW RIVER 0100 73 76 260/ 12/ 16 1011.0 2/ 9 2/ 9 5 SE WRIGHTSVLE 0100 69 73 260/ 12/ 14 N/A 225 S CAPE HAT 0047 78 80 240/ 10/ 12 1012.8 4/10 3/10 41 SE CHARLESTON 0100 75 79 240/ 14/ 16 1012.2 3/ 9 2/ 9 $$

USA.gov is the U.S. government's official web portal to all federal, state and local government web resources and services.